Time,TemperatureF,DewpointF,PressureIn,WindDirection,WindDirectionDegrees,WindSpeedMPH,WindSpeedGustMPH,Humidity,HourlyPrecipIn,Conditions,Clouds,dailyrainin,SoftwareType,DateUTC
2013-04-04 00:00:00,25.3,16.6,30.43,NNE,31,0.0,2.0,69,0.00,,,0.00,WUHU216DAVISVP2,2013-04-04 04:00:00,
2013-04-04 00:05:00,25.1,16.7,30.43,NNE,31,1.0,2.0,70,0.00,,,0.00,WUHU216DAVISVP2,2013-04-04 04:05:00,
2013-04-04 00:10:00,24.9,16.9,30.43,NNE,31,0.0,2.0,71,0.00,,,0.00,WUHU216DAVISVP2,2013-04-04 04:10:00,
2013-04-04 00:15:00,24.8,17.1,30.43,NNE,31,0.0,2.0,72,0.00,,,0.00,WUHU216DAVISVP2,2013-04-04 04:15:00,
2013-04-04 00:20:00,24.7,17.0,30.43,NNE,31,0.0,2.0,72,0.00,,,0.00,WUHU216DAVISVP2,2013-04-04 04:20:00,
2013-04-04 00:25:00,24.6,17.2,30.43,NNE,31,0.0,2.0,73,0.00,,,0.00,WUHU216DAVISVP2,2013-04-04 04:25:00,
2013-04-04 00:30:00,24.5,16.8,30.43,NNE,31,0.0,2.0,72,0.00,,,0.00,WUHU216DAVISVP2,2013-04-04 04:30:00,
2013-04-04 00:35:00,24.3,16.9,30.43,NNE,31,0.0,1.0,73,0.00,,,0.00,WUHU216DAVISVP2,2013-04-04 04:35:00,
2013-04-04 00:40:00,24.0,17.0,30.43,NNE,31,0.0,1.0,74,0.00,,,0.00,WUHU216DAVISVP2,2013-04-04 04:40:00,
2013-04-04 00:45:00,23.9,17.2,30.42,NNE,31,2.0,3.0,75,0.00,,,0.00,WUHU216DAVISVP2,2013-04-04 04:45:00,
2013-04-04 00:50:00,23.8,17.1,30.42,NNE,31,0.0,3.0,75,0.00,,,0.00,WUHU216DAVISVP2,2013-04-04 04:50:00,
2013-04-04 00:55:00,23.5,17.1,30.42,NNE,31,0.0,3.0,76,0.00,,,0.00,WUHU216DAVISVP2,2013-04-04 04:55:00,
2013-04-04 01:00:00,23.3,17.2,30.42,NNE,31,0.0,3.0,77,0.00,,,0.00,WUHU216DAVISVP2,2013-04-04 05:00:00,
2013-04-04 01:05:00,23.2,17.1,30.42,NNE,31,0.0,2.0,77,0.00,,,0.00,WUHU216DAVISVP2,2013-04-04 05:05:00,
2013-04-04 01:10:00,23.0,16.6,30.42,NNE,31,0.0,2.0,76,0.00,,,0.00,WUHU216DAVISVP2,2013-04-04 05:10:00,
2013-04-04 01:15:00,22.9,16.5,30.42,NNE,31,0.0,2.0,76,0.00,,,0.00,WUHU216DAVISVP2,2013-04-04 05:15:00,
2013-04-04 01:20:00,22.9,16.8,30.42,NNE,31,0.0,2.0,77,0.00,,,0.00,WUHU216DAVISVP2,2013-04-04 05:20:00,
2013-04-04 01:25:00,22.7,16.9,30.41,NNE,31,0.0,1.0,78,0.00,,,0.00,WUHU216DAVISVP2,2013-04-04 05:25:00,
2013-04-04 01:30:00,22.6,16.5,30.41,NNE,31,0.0,1.0,77,0.00,,,0.00,WUHU216DAVISVP2,2013-04-04 05:30:00,
2013-04-04 01:35:00,22.5,16.7,30.41,NNE,31,0.0,2.0,78,0.00,,,0.00,WUHU216DAVISVP2,2013-04-04 05:35:00,
2013-04-04 01:40:00,22.4,16.6,30.41,NNE,31,0.0,2.0,78,0.00,,,0.00,WUHU216DAVISVP2,2013-04-04 05:40:00,
2013-04-04 01:45:00,22.3,16.5,30.41,NNE,31,0.0,2.0,78,0.00,,,0.00,WUHU216DAVISVP2,2013-04-04 05:45:00,
2013-04-04 01:50:00,22.1,16.6,30.41,NNE,31,0.0,2.0,79,0.00,,,0.00,WUHU216DAVISVP2,2013-04-04 05:50:00,
2013-04-04 01:55:00,21.9,16.7,30.41,NNE,31,0.0,1.0,80,0.00,,,0.00,WUHU216DAVISVP2,2013-04-04 05:55:00,
2013-04-04 02:00:00,21.8,16.3,30.41,NNE,31,0.0,1.0,79,0.00,,,0.00,WUHU216DAVISVP2,2013-04-04 06:00:00,
2013-04-04 02:05:00,21.5,16.3,30.41,NNE,31,0.0,1.0,80,0.00,,,0.00,WUHU216DAVISVP2,2013-04-04 06:05:00,
2013-04-04 02:10:00,21.3,16.1,30.41,NNE,31,0.0,1.0,80,0.00,,,0.00,WUHU216DAVISVP2,2013-04-04 06:10:00,
2013-04-04 02:15:00,21.1,15.9,30.41,NNE,31,0.0,1.0,80,0.00,,,0.00,WUHU216DAVISVP2,2013-04-04 06:15:00,
2013-04-04 02:20:00,20.9,15.7,30.41,NNE,31,0.0,0.0,80,0.00,,,0.00,WUHU216DAVISVP2,2013-04-04 06:20:00,
2013-04-04 02:25:00,20.7,15.5,30.41,NNE,31,0.0,0.0,80,0.00,,,0.00,WUHU216DAVISVP2,2013-04-04 06:25:00,
2013-04-04 02:30:00,20.6,16.0,30.41,NNE,31,0.0,0.0,82,0.00,,,0.00,WUHU216DAVISVP2,2013-04-04 06:30:00,
2013-04-04 02:35:00,20.6,16.0,30.41,NNE,31,0.0,0.0,82,0.00,,,0.00,WUHU216DAVISVP2,2013-04-04 06:35:00,
2013-04-04 02:40:00,20.4,15.8,30.41,NNE,31,0.0,0.0,82,0.00,,,0.00,WUHU216DAVISVP2,2013-04-04 06:40:00,
2013-04-04 02:45:00,20.3,15.9,30.41,NNE,31,0.0,0.0,83,0.00,,,0.00,WUHU216DAVISVP2,2013-04-04 06:45:00,
2013-04-04 02:50:00,20.2,16.1,30.41,NNE,31,0.0,1.0,84,0.00,,,0.00,WUHU216DAVISVP2,2013-04-04 06:50:00,
2013-04-04 02:55:00,20.1,15.8,30.42,NNE,31,0.0,1.0,83,0.00,,,0.00,WUHU216DAVISVP2,2013-04-04 06:55:00,
2013-04-04 03:00:00,20.0,15.6,30.41,NNE,31,0.0,1.0,83,0.00,,,0.00,WUHU216DAVISVP2,2013-04-04 07:00:00,
2013-04-04 03:05:00,20.0,15.9,30.41,NNE,31,0.0,2.0,84,0.00,,,0.00,WUHU216DAVISVP2,2013-04-04 07:05:00,
2013-04-04 03:10:00,19.9,15.8,30.41,NNE,31,0.0,2.0,84,0.00,,,0.00,WUHU216DAVISVP2,2013-04-04 07:10:00,
2013-04-04 03:15:00,19.8,15.7,30.41,NNE,31,0.0,2.0,84,0.00,,,0.00,WUHU216DAVISVP2,2013-04-04 07:15:00,
2013-04-04 03:20:00,19.7,15.6,30.41,NNE,31,0.0,2.0,84,0.00,,,0.00,WUHU216DAVISVP2,2013-04-04 07:20:00,
2013-04-04 03:25:00,19.5,15.5,30.42,NNE,31,0.0,1.0,84,0.00,,,0.00,WUHU216DAVISVP2,2013-04-04 07:25:00,
2013-04-04 03:30:00,19.5,15.7,30.42,NNE,31,1.0,1.0,85,0.00,,,0.00,WUHU216DAVISVP2,2013-04-04 07:30:00,
2013-04-04 03:35:00,19.6,15.8,30.42,NNE,31,1.0,1.0,85,0.00,,,0.00,WUHU216DAVISVP2,2013-04-04 07:35:00,
2013-04-04 03:40:00,19.5,15.7,30.42,NNE,31,0.0,1.0,85,0.00,,,0.00,WUHU216DAVISVP2,2013-04-04 07:40:00,
2013-04-04 03:45:00,19.6,15.8,30.43,NNE,31,0.0,1.0,85,0.00,,,0.00,WUHU216DAVISVP2,2013-04-04 07:45:00,
2013-04-04 03:50:00,19.5,15.7,30.43,NNE,31,0.0,1.0,85,0.00,,,0.00,WUHU216DAVISVP2,2013-04-04 07:50:00,
2013-04-04 03:55:00,19.4,15.6,30.43,NNE,31,0.0,1.0,85,0.00,,,0.00,WUHU216DAVISVP2,2013-04-04 07:55:00,
2013-04-04 04:00:00,19.3,15.5,30.43,NNE,31,0.0,1.0,85,0.00,,,0.00,WUHU216DAVISVP2,2013-04-04 08:00:00,
2013-04-04 04:05:00,19.3,15.5,30.43,NNE,31,0.0,1.0,85,0.00,,,0.00,WUHU216DAVISVP2,2013-04-04 08:05:00,
2013-04-04 04:10:00,19.3,15.5,30.43,NNE,31,0.0,1.0,85,0.00,,,0.00,WUHU216DAVISVP2,2013-04-04 08:10:00,
2013-04-04 04:15:00,19.1,15.3,30.42,NNE,31,0.0,1.0,85,0.00,,,0.00,WUHU216DAVISVP2,2013-04-04 08:15:00,
2013-04-04 04:20:00,19.0,15.2,30.42,NNE,31,0.0,1.0,85,0.00,,,0.00,WUHU216DAVISVP2,2013-04-04 08:20:00,
2013-04-04 04:25:00,19.0,15.2,30.42,NNE,31,1.0,1.0,85,0.00,,,0.00,WUHU216DAVISVP2,2013-04-04 08:25:00,
2013-04-04 04:30:00,18.9,15.1,30.42,NNE,31,0.0,1.0,85,0.00,,,0.00,WUHU216DAVISVP2,2013-04-04 08:30:00,
2013-04-04 04:35:00,18.8,15.0,30.42,NNE,31,0.0,1.0,85,0.00,,,0.00,WUHU216DAVISVP2,2013-04-04 08:35:00,
2013-04-04 04:40:00,18.7,15.2,30.43,NNE,31,0.0,1.0,86,0.00,,,0.00,WUHU216DAVISVP2,2013-04-04 08:40:00,
2013-04-04 04:45:00,18.7,15.2,30.43,NNE,31,1.0,1.0,86,0.00,,,0.00,WUHU216DAVISVP2,2013-04-04 08:45:00,
2013-04-04 04:50:00,18.7,15.2,30.43,NNE,31,0.0,1.0,86,0.00,,,0.00,WUHU216DAVISVP2,2013-04-04 08:50:00,
2013-04-04 04:55:00,18.7,15.2,30.43,NNE,31,0.0,1.0,86,0.00,,,0.00,WUHU216DAVISVP2,2013-04-04 08:55:00,
2013-04-04 05:00:00,18.6,15.1,30.44,NNE,31,0.0,1.0,86,0.00,,,0.00,WUHU216DAVISVP2,2013-04-04 09:00:00,
2013-04-04 05:05:00,18.5,15.0,30.44,NNE,31,0.0,1.0,86,0.00,,,0.00,WUHU216DAVISVP2,2013-04-04 09:05:00,
2013-04-04 05:10:00,18.5,15.2,30.43,NNE,31,1.0,2.0,87,0.00,,,0.00,WUHU216DAVISVP2,2013-04-04 09:10:00,
2013-04-04 05:15:00,18.6,15.4,30.43,NNE,31,1.0,2.0,87,0.00,,,0.00,WUHU216DAVISVP2,2013-04-04 09:15:00,
2013-04-04 05:20:00,18.6,15.3,30.43,NNE,31,0.0,2.0,87,0.00,,,0.00,WUHU216DAVISVP2,2013-04-04 09:20:00,
2013-04-04 05:25:00,18.5,15.0,30.44,NNE,31,0.0,2.0,86,0.00,,,0.00,WUHU216DAVISVP2,2013-04-04 09:25:00,
2013-04-04 05:30:00,18.5,15.2,30.43,NNE,31,0.0,2.0,87,0.00,,,0.00,WUHU216DAVISVP2,2013-04-04 09:30:00,
2013-04-04 05:35:00,18.4,15.1,30.43,NNE,31,0.0,1.0,87,0.00,,,0.00,WUHU216DAVISVP2,2013-04-04 09:35:00,
2013-04-04 05:40:00,18.4,15.1,30.43,NNE,31,0.0,1.0,87,0.00,,,0.00,WUHU216DAVISVP2,2013-04-04 09:40:00,
2013-04-04 05:45:00,18.2,14.9,30.43,NNE,31,0.0,1.0,87,0.00,,,0.00,WUHU216DAVISVP2,2013-04-04 09:45:00,
2013-04-04 05:50:00,18.1,14.8,30.43,NNE,31,0.0,1.0,87,0.00,,,0.00,WUHU216DAVISVP2,2013-04-04 09:50:00,
2013-04-04 05:55:00,18.0,14.8,30.43,NNE,31,0.0,0.0,87,0.00,,,0.00,WUHU216DAVISVP2,2013-04-04 09:55:00,
2013-04-04 06:00:00,17.9,14.9,30.43,NNE,31,0.0,1.0,88,0.00,,,0.00,WUHU216DAVISVP2,2013-04-04 10:00:00,
2013-04-04 06:05:00,17.9,14.9,30.43,NNE,31,1.0,1.0,88,0.00,,,0.00,WUHU216DAVISVP2,2013-04-04 10:05:00,
2013-04-04 06:10:00,17.9,14.9,30.42,NNE,31,0.0,1.0,88,0.00,,,0.00,WUHU216DAVISVP2,2013-04-04 10:10:00,
2013-04-04 06:15:00,18.0,15.3,30.42,NNE,31,0.0,1.0,89,0.00,,,0.00,WUHU216DAVISVP2,2013-04-04 10:15:00,
2013-04-04 06:20:00,18.0,15.3,30.42,NNE,31,0.0,1.0,89,0.00,,,0.00,WUHU216DAVISVP2,2013-04-04 10:20:00,
2013-04-04 06:25:00,17.9,14.9,30.41,NNE,31,0.0,1.0,88,0.00,,,0.00,WUHU216DAVISVP2,2013-04-04 10:25:00,
2013-04-04 06:30:00,17.8,14.8,30.41,NNE,31,0.0,1.0,88,0.00,,,0.00,WUHU216DAVISVP2,2013-04-04 10:30:00,
2013-04-04 06:35:00,17.7,14.7,30.41,NNE,31,0.0,1.0,88,0.00,,,0.00,WUHU216DAVISVP2,2013-04-04 10:35:00,
2013-04-04 06:40:00,17.5,14.5,30.41,NNE,31,0.0,1.0,88,0.00,,,0.00,WUHU216DAVISVP2,2013-04-04 10:40:00,
2013-04-04 06:45:00,17.4,14.5,30.41,NNE,31,0.0,0.0,88,0.00,,,0.00,WUHU216DAVISVP2,2013-04-04 10:45:00,
2013-04-04 06:50:00,17.5,14.8,30.40,NNE,31,0.0,0.0,89,0.00,,,0.00,WUHU216DAVISVP2,2013-04-04 10:50:00,
2013-04-04 06:55:00,17.6,15.1,30.40,NNE,31,0.0,1.0,90,0.00,,,0.00,WUHU216DAVISVP2,2013-04-04 10:55:00,
2013-04-04 07:00:00,17.6,14.9,30.40,NNE,31,0.0,1.0,89,0.00,,,0.00,WUHU216DAVISVP2,2013-04-04 11:00:00,
2013-04-04 07:05:00,17.6,14.9,30.40,NNE,31,0.0,1.0,89,0.00,,,0.00,WUHU216DAVISVP2,2013-04-04 11:05:00,
2013-04-04 07:10:00,17.6,14.9,30.39,NNE,31,0.0,1.0,89,0.00,,,0.00,WUHU216DAVISVP2,2013-04-04 11:10:00,
2013-04-04 07:15:00,17.7,15.0,30.39,NNE,31,0.0,1.0,89,0.00,,,0.00,WUHU216DAVISVP2,2013-04-04 11:15:00,
2013-04-04 07:20:00,17.7,15.0,30.39,NNE,31,0.0,1.0,89,0.00,,,0.00,WUHU216DAVISVP2,2013-04-04 11:20:00,
2013-04-04 07:25:00,17.7,15.0,30.39,NNE,31,0.0,1.0,89,0.00,,,0.00,WUHU216DAVISVP2,2013-04-04 11:25:00,
2013-04-04 07:31:00,17.8,15.3,30.39,NNE,31,0.0,1.0,90,0.00,,,0.00,WUHU216DAVISVP2,2013-04-04 11:31:00,
2013-04-04 07:36:00,17.9,15.4,30.40,NNE,31,0.0,0.0,90,0.00,,,0.00,WUHU216DAVISVP2,2013-04-04 11:36:00,
2013-04-04 07:41:00,18.1,15.6,30.40,NNE,31,0.0,0.0,90,0.00,,,0.00,WUHU216DAVISVP2,2013-04-04 11:41:00,
2013-04-04 07:46:00,18.4,16.2,30.39,NNE,31,0.0,1.0,91,0.00,,,0.00,WUHU216DAVISVP2,2013-04-04 11:46:00,
2013-04-04 07:51:00,18.8,16.6,30.39,NNE,31,0.0,1.0,91,0.00,,,0.00,WUHU216DAVISVP2,2013-04-04 11:51:00,
2013-04-04 07:56:00,19.0,16.8,30.39,NNE,31,0.0,1.0,91,0.00,,,0.00,WUHU216DAVISVP2,2013-04-04 11:56:00,
2013-04-04 08:01:00,19.3,17.1,30.39,NNE,31,0.0,1.0,91,0.00,,,0.00,WUHU216DAVISVP2,2013-04-04 12:01:00,
2013-04-04 08:06:00,19.7,17.2,30.39,NNE,31,0.0,1.0,90,0.00,,,0.00,WUHU216DAVISVP2,2013-04-04 12:06:00,
2013-04-04 08:11:00,20.0,17.5,30.39,NNE,31,0.0,1.0,90,0.00,,,0.00,WUHU216DAVISVP2,2013-04-04 12:11:00,
2013-04-04 08:16:00,20.3,17.5,30.39,NNE,31,0.0,1.0,89,0.00,,,0.00,WUHU216DAVISVP2,2013-04-04 12:16:00,
2013-04-04 08:21:00,20.6,17.6,30.39,NNE,31,0.0,1.0,88,0.00,,,0.00,WUHU216DAVISVP2,2013-04-04 12:21:00,
2013-04-04 08:26:00,20.9,17.6,30.39,NNE,31,0.0,1.0,87,0.00,,,0.00,WUHU216DAVISVP2,2013-04-04 12:26:00,
2013-04-04 08:31:00,21.2,17.9,30.39,NE,37,1.0,3.0,87,0.00,,,0.00,WUHU216DAVISVP2,2013-04-04 12:31:00,
2013-04-04 08:36:00,21.6,17.8,30.39,ESE,122,0.0,3.0,85,0.00,,,0.00,WUHU216DAVISVP2,2013-04-04 12:36:00,
2013-04-04 08:41:00,22.0,17.9,30.39,SE,127,0.0,3.0,84,0.00,,,0.00,WUHU216DAVISVP2,2013-04-04 12:41:00,
2013-04-04 08:47:00,22.4,17.7,30.39,SE,131,0.0,3.0,82,0.00,,,0.00,WUHU216DAVISVP2,2013-04-04 12:47:00,
2013-04-04 08:52:00,22.6,17.6,30.39,SE,131,0.0,2.0,81,0.00,,,0.00,WUHU216DAVISVP2,2013-04-04 12:52:00,
2013-04-04 08:57:00,23.0,17.8,30.38,SE,130,0.0,2.0,80,0.00,,,0.00,WUHU216DAVISVP2,2013-04-04 12:57:00,
2013-04-04 09:02:00,23.2,17.4,30.38,SE,130,0.0,2.0,78,0.00,,,0.00,WUHU216DAVISVP2,2013-04-04 13:02:00,
2013-04-04 09:07:00,23.5,18.0,30.38,SE,130,0.0,1.0,79,0.00,,,0.00,WUHU216DAVISVP2,2013-04-04 13:07:00,
2013-04-04 09:12:00,24.0,18.7,30.38,SE,131,0.0,1.0,80,0.00,,,0.00,WUHU216DAVISVP2,2013-04-04 13:12:00,
2013-04-04 09:17:00,24.3,17.9,30.38,SE,131,0.0,1.0,76,0.00,,,0.00,WUHU216DAVISVP2,2013-04-04 13:17:00,
2013-04-04 09:22:00,24.5,17.7,30.38,SE,131,0.0,1.0,75,0.00,,,0.00,WUHU216DAVISVP2,2013-04-04 13:22:00,
2013-04-04 09:27:00,24.8,18.0,30.37,SE,130,0.0,0.0,75,0.00,,,0.00,WUHU216DAVISVP2,2013-04-04 13:27:00,
2013-04-04 09:32:00,25.2,18.4,30.37,SE,131,1.0,2.0,75,0.00,,,0.00,WUHU216DAVISVP2,2013-04-04 13:32:00,
2013-04-04 09:37:00,25.5,19.0,30.36,SE,130,0.0,2.0,76,0.00,,,0.00,WUHU216DAVISVP2,2013-04-04 13:37:00,
2013-04-04 09:42:00,25.9,19.1,30.36,SSE,147,0.0,2.0,75,0.00,,,0.00,WUHU216DAVISVP2,2013-04-04 13:42:00,
2013-04-04 09:47:00,26.3,19.2,30.35,South,171,1.0,2.0,74,0.00,,,0.00,WUHU216DAVISVP2,2013-04-04 13:47:00,
2013-04-04 09:52:00,26.9,20.1,30.35,SSE,156,0.0,2.0,75,0.00,,,0.00,WUHU216DAVISVP2,2013-04-04 13:52:00,
2013-04-04 09:57:00,27.2,19.1,30.35,SSE,162,1.0,2.0,71,0.00,,,0.00,WUHU216DAVISVP2,2013-04-04 13:57:00,
2013-04-04 10:02:00,27.6,19.1,30.35,SW,222,1.0,3.0,70,0.00,,,0.00,WUHU216DAVISVP2,2013-04-04 14:02:00,
2013-04-04 10:07:00,27.9,19.4,30.35,South,184,2.0,4.0,70,0.00,,,0.00,WUHU216DAVISVP2,2013-04-04 14:07:00,
2013-04-04 10:12:00,28.3,19.5,30.34,SSW,195,1.0,4.0,69,0.00,,,0.00,WUHU216DAVISVP2,2013-04-04 14:12:00,
2013-04-04 10:17:00,28.7,19.5,30.34,SSW,209,2.0,4.0,68,0.00,,,0.00,WUHU216DAVISVP2,2013-04-04 14:17:00,
2013-04-04 10:22:00,29.1,20.3,30.33,SW,222,1.0,4.0,69,0.00,,,0.00,WUHU216DAVISVP2,2013-04-04 14:22:00,
2013-04-04 10:27:00,29.8,20.9,30.33,South,180,1.0,4.0,69,0.00,,,0.00,WUHU216DAVISVP2,2013-04-04 14:27:00,
2013-04-04 10:32:00,30.7,21.5,30.33,South,181,3.0,4.0,68,0.00,,,0.00,WUHU216DAVISVP2,2013-04-04 14:32:00,
2013-04-04 10:37:00,31.0,20.7,30.33,SW,217,1.0,4.0,65,0.00,,,0.00,WUHU216DAVISVP2,2013-04-04 14:37:00,
2013-04-04 10:42:00,31.4,20.3,30.33,SW,222,1.0,4.0,63,0.00,,,0.00,WUHU216DAVISVP2,2013-04-04 14:42:00,
2013-04-04 10:47:00,31.9,21.2,30.33,SW,223,1.0,4.0,64,0.00,,,0.00,WUHU216DAVISVP2,2013-04-04 14:47:00,
2013-04-04 10:52:00,32.3,20.8,30.33,SW,224,1.0,3.0,62,0.00,,,0.00,WUHU216DAVISVP2,2013-04-04 14:52:00,
2013-04-04 10:57:00,32.9,21.0,30.33,SW,229,2.0,3.0,61,0.00,,,0.00,WUHU216DAVISVP2,2013-04-04 14:57:00,
2013-04-04 11:02:00,33.4,20.6,30.32,SW,233,2.0,3.0,59,0.00,,,0.00,WUHU216DAVISVP2,2013-04-04 15:02:00,
2013-04-04 11:07:00,33.8,21.4,30.32,NW,321,0.0,3.0,60,0.00,,,0.00,WUHU216DAVISVP2,2013-04-04 15:07:00,
2013-04-04 11:12:00,34.4,20.7,30.32,WNW,283,0.0,3.0,57,0.00,,,0.00,WUHU216DAVISVP2,2013-04-04 15:12:00,
2013-04-04 11:17:00,34.8,19.8,30.31,WNW,295,0.0,3.0,54,0.00,,,0.00,WUHU216DAVISVP2,2013-04-04 15:17:00,
2013-04-04 11:23:00,35.5,20.9,30.31,NW,321,0.0,3.0,55,0.00,,,0.00,WUHU216DAVISVP2,2013-04-04 15:23:00,
2013-04-04 11:27:00,36.2,20.2,30.30,West,268,2.0,3.0,52,0.00,,,0.00,WUHU216DAVISVP2,2013-04-04 15:27:00,
2013-04-04 11:33:00,37.0,19.5,30.30,NW,318,0.0,3.0,49,0.00,,,0.00,WUHU216DAVISVP2,2013-04-04 15:33:00,
2013-04-04 11:38:00,37.7,18.7,30.30,WNW,289,0.0,3.0,46,0.00,,,0.00,WUHU216DAVISVP2,2013-04-04 15:38:00,
2013-04-04 11:43:00,38.7,20.1,30.30,WSW,256,1.0,4.0,47,0.00,,,0.00,WUHU216DAVISVP2,2013-04-04 15:43:00,
2013-04-04 11:48:00,39.3,19.0,30.30,SW,233,3.0,4.0,44,0.00,,,0.00,WUHU216DAVISVP2,2013-04-04 15:48:00,
2013-04-04 11:53:00,40.1,18.1,30.29,South,188,0.0,4.0,41,0.00,,,0.00,WUHU216DAVISVP2,2013-04-04 15:53:00,
2013-04-04 11:58:00,40.5,17.3,30.29,SW,216,0.0,4.0,39,0.00,,,0.00,WUHU216DAVISVP2,2013-04-04 15:58:00,
2013-04-04 12:03:00,41.1,18.4,30.29,NW,311,1.0,4.0,40,0.00,,,0.00,WUHU216DAVISVP2,2013-04-04 16:03:00,
2013-04-04 12:08:00,41.9,16.6,30.29,NW,310,1.0,3.0,36,0.00,,,0.00,WUHU216DAVISVP2,2013-04-04 16:08:00,
2013-04-04 12:13:00,42.4,16.4,30.28,WSW,256,1.0,4.0,35,0.00,,,0.00,WUHU216DAVISVP2,2013-04-04 16:13:00,
2013-04-04 12:18:00,43.1,17.1,30.28,SW,230,2.0,4.0,35,0.00,,,0.00,WUHU216DAVISVP2,2013-04-04 16:18:00,
2013-04-04 12:23:00,43.7,16.9,30.27,SE,137,4.0,5.0,34,0.00,,,0.00,WUHU216DAVISVP2,2013-04-04 16:23:00,
2013-04-04 12:28:00,44.9,17.3,30.27,South,184,2.0,10.0,33,0.00,,,0.00,WUHU216DAVISVP2,2013-04-04 16:28:00,
2013-04-04 12:33:00,45.7,16.7,30.26,SE,137,1.0,10.0,31,0.00,,,0.00,WUHU216DAVISVP2,2013-04-04 16:33:00,
2013-04-04 12:38:00,46.4,14.2,30.26,SSE,157,0.0,10.0,27,0.00,,,0.00,WUHU216DAVISVP2,2013-04-04 16:38:00,
2013-04-04 12:43:00,46.9,16.8,30.26,SE,144,1.0,10.0,30,0.00,,,0.00,WUHU216DAVISVP2,2013-04-04 16:43:00,
2013-04-04 12:48:00,47.3,15.6,30.25,East,89,5.0,10.0,28,0.00,,,0.00,WUHU216DAVISVP2,2013-04-04 16:48:00,
2013-04-04 12:53:00,47.7,18.3,30.25,ESE,110,3.0,10.0,31,0.00,,,0.00,WUHU216DAVISVP2,2013-04-04 16:53:00,
2013-04-04 12:58:00,48.1,15.5,30.24,ESE,114,3.0,10.0,27,0.00,,,0.00,WUHU216DAVISVP2,2013-04-04 16:58:00,
2013-04-04 13:03:00,48.8,20.0,30.24,SSE,160,2.0,9.0,32,0.00,,,0.00,WUHU216DAVISVP2,2013-04-04 17:03:00,
2013-04-04 13:08:00,49.3,17.3,30.24,SE,146,7.0,9.0,28,0.00,,,0.00,WUHU216DAVISVP2,2013-04-04 17:08:00,
2013-04-04 13:13:00,49.5,19.1,30.23,SSE,153,2.0,9.0,30,0.00,,,0.00,WUHU216DAVISVP2,2013-04-04 17:13:00,
2013-04-04 13:18:00,49.6,16.8,30.23,East,91,3.0,9.0,27,0.00,,,0.00,WUHU216DAVISVP2,2013-04-04 17:18:00,
2013-04-04 13:23:00,49.6,17.6,30.22,SE,125,0.0,10.0,28,0.00,,,0.00,WUHU216DAVISVP2,2013-04-04 17:23:00,
2013-04-04 13:28:00,50.2,18.9,30.22,East,95,3.0,10.0,29,0.00,,,0.00,WUHU216DAVISVP2,2013-04-04 17:28:00,
2013-04-04 13:33:00,50.6,20.1,30.22,SSE,156,2.0,10.0,30,0.00,,,0.00,WUHU216DAVISVP2,2013-04-04 17:33:00,
2013-04-04 13:38:00,50.6,20.8,30.22,SE,139,1.0,10.0,31,0.00,,,0.00,WUHU216DAVISVP2,2013-04-04 17:38:00,
2013-04-04 13:43:00,50.6,18.5,30.21,East,97,5.0,11.0,28,0.00,,,0.00,WUHU216DAVISVP2,2013-04-04 17:43:00,
2013-04-04 13:48:00,50.3,20.6,30.21,SE,132,6.0,11.0,31,0.00,,,0.00,WUHU216DAVISVP2,2013-04-04 17:48:00,
2013-04-04 13:53:00,50.6,18.5,30.20,SE,137,2.0,11.0,28,0.00,,,0.00,WUHU216DAVISVP2,2013-04-04 17:53:00,
2013-04-04 13:58:00,50.5,18.4,30.20,ESE,112,1.0,11.0,28,0.00,,,0.00,WUHU216DAVISVP2,2013-04-04 17:58:00,
2013-04-04 14:03:00,50.7,20.2,30.20,East,100,3.0,11.0,30,0.00,,,0.00,WUHU216DAVISVP2,2013-04-04 18:03:00,
2013-04-04 14:08:00,51.0,21.9,30.19,ESE,117,5.0,10.0,32,0.00,,,0.00,WUHU216DAVISVP2,2013-04-04 18:08:00,
2013-04-04 14:13:00,51.1,19.7,30.19,SE,133,2.0,10.0,29,0.00,,,0.00,WUHU216DAVISVP2,2013-04-04 18:13:00,
2013-04-04 14:18:00,51.1,20.5,30.19,South,174,4.0,10.0,30,0.00,,,0.00,WUHU216DAVISVP2,2013-04-04 18:18:00,
2013-04-04 14:23:00,51.0,20.4,30.19,SSE,166,2.0,9.0,30,0.00,,,0.00,WUHU216DAVISVP2,2013-04-04 18:23:00,
2013-04-04 14:28:00,51.0,20.4,30.19,SSE,156,1.0,10.0,30,0.00,,,0.00,WUHU216DAVISVP2,2013-04-04 18:28:00,
2013-04-04 14:33:00,51.1,21.3,30.18,ENE,64,0.0,10.0,31,0.00,,,0.00,WUHU216DAVISVP2,2013-04-04 18:33:00,
2013-04-04 14:38:00,51.0,20.4,30.18,SSE,165,1.0,10.0,30,0.00,,,0.00,WUHU216DAVISVP2,2013-04-04 18:38:00,
2013-04-04 14:43:00,50.6,20.1,30.18,SE,136,2.0,10.0,30,0.00,,,0.00,WUHU216DAVISVP2,2013-04-04 18:43:00,
2013-04-04 14:48:00,50.6,19.3,30.18,SE,130,8.0,11.0,29,0.00,,,0.00,WUHU216DAVISVP2,2013-04-04 18:48:00,
2013-04-04 14:53:00,50.5,20.7,30.17,SE,131,3.0,11.0,31,0.00,,,0.00,WUHU216DAVISVP2,2013-04-04 18:53:00,
2013-04-04 14:58:00,50.6,19.3,30.18,East,99,6.0,11.0,29,0.00,,,0.00,WUHU216DAVISVP2,2013-04-04 18:58:00,
2013-04-04 15:03:00,50.6,20.1,30.17,SE,126,4.0,11.0,30,0.00,,,0.00,WUHU216DAVISVP2,2013-04-04 19:03:00,
2013-04-04 15:08:00,50.6,20.8,30.17,South,175,1.0,10.0,31,0.00,,,0.00,WUHU216DAVISVP2,2013-04-04 19:08:00,
2013-04-04 15:13:00,50.9,22.6,30.17,ESE,114,7.0,10.0,33,0.00,,,0.00,WUHU216DAVISVP2,2013-04-04 19:13:00,
2013-04-04 15:18:00,50.8,20.2,30.16,SE,124,1.0,10.0,30,0.00,,,0.00,WUHU216DAVISVP2,2013-04-04 19:18:00,
2013-04-04 15:23:00,50.8,19.5,30.16,ENE,77,4.0,10.0,29,0.00,,,0.00,WUHU216DAVISVP2,2013-04-04 19:23:00,
2013-04-04 15:28:00,50.9,18.7,30.16,ESE,122,3.0,11.0,28,0.00,,,0.00,WUHU216DAVISVP2,2013-04-04 19:28:00,
2013-04-04 15:33:00,51.0,20.6,30.16,South,190,1.0,11.0,30,0.00,,,0.00,WUHU216DAVISVP2,2013-04-04 19:33:00,
2013-04-04 15:38:00,50.8,20.4,30.16,SE,141,2.0,11.0,30,0.00,,,0.00,WUHU216DAVISVP2,2013-04-04 19:38:00,
2013-04-04 15:43:00,50.9,20.5,30.15,ESE,106,5.0,11.0,30,0.00,,,0.00,WUHU216DAVISVP2,2013-04-04 19:43:00,
2013-04-04 15:48:00,50.9,20.5,30.15,SE,127,5.0,10.0,30,0.00,,,0.00,WUHU216DAVISVP2,2013-04-04 19:48:00,
2013-04-04 15:53:00,51.2,20.8,30.15,SE,132,2.0,10.0,30,0.00,,,0.00,WUHU216DAVISVP2,2013-04-04 19:53:00,
2013-04-04 15:58:00,51.4,19.3,30.15,SSE,160,2.0,9.0,28,0.00,,,0.00,WUHU216DAVISVP2,2013-04-04 19:58:00,
2013-04-04 16:03:00,51.0,19.6,30.15,ESE,112,2.0,9.0,29,0.00,,,0.00,WUHU216DAVISVP2,2013-04-04 20:03:00,
2013-04-04 16:08:00,51.0,21.2,30.14,SSE,167,7.0,9.0,31,0.00,,,0.00,WUHU216DAVISVP2,2013-04-04 20:08:00,
2013-04-04 16:13:00,51.2,20.6,30.14,East,80,6.0,9.0,30,0.00,,,0.00,WUHU216DAVISVP2,2013-04-04 20:13:00,
2013-04-04 16:18:00,51.3,20.7,30.14,ESE,118,5.0,10.0,30,0.00,,,0.00,WUHU216DAVISVP2,2013-04-04 20:18:00,
2013-04-04 16:23:00,50.9,18.7,30.14,ESE,110,7.0,10.0,28,0.00,,,0.00,WUHU216DAVISVP2,2013-04-04 20:23:00,
2013-04-04 16:29:00,50.9,19.5,30.13,SE,143,6.0,10.0,29,0.00,,,0.00,WUHU216DAVISVP2,2013-04-04 20:29:00,
2013-04-04 16:34:00,50.9,21.1,30.13,ESE,110,2.0,9.0,31,0.00,,,0.00,WUHU216DAVISVP2,2013-04-04 20:34:00,
2013-04-04 16:39:00,50.7,20.2,30.13,SE,145,1.0,9.0,30,0.00,,,0.00,WUHU216DAVISVP2,2013-04-04 20:39:00,
2013-04-04 16:44:00,50.6,21.6,30.13,South,188,5.0,9.0,32,0.00,,,0.00,WUHU216DAVISVP2,2013-04-04 20:44:00,
2013-04-04 16:49:00,50.7,21.7,30.13,ESE,115,4.0,9.0,32,0.00,,,0.00,WUHU216DAVISVP2,2013-04-04 20:49:00,
2013-04-04 16:54:00,50.8,20.2,30.13,ESE,112,3.0,8.0,30,0.00,,,0.00,WUHU216DAVISVP2,2013-04-04 20:54:00,
2013-04-04 16:59:00,50.7,20.9,30.12,SSE,150,0.0,8.0,31,0.00,,,0.00,WUHU216DAVISVP2,2013-04-04 20:59:00,
2013-04-04 17:04:00,50.6,21.6,30.12,ESE,123,2.0,8.0,32,0.00,,,0.00,WUHU216DAVISVP2,2013-04-04 21:04:00,
2013-04-04 17:09:00,50.5,20.0,30.12,East,93,2.0,8.0,30,0.00,,,0.00,WUHU216DAVISVP2,2013-04-04 21:09:00,
2013-04-04 17:14:00,50.4,20.1,30.11,SSE,147,1.0,11.0,30,0.00,,,0.00,WUHU216DAVISVP2,2013-04-04 21:14:00,
2013-04-04 17:19:00,50.1,20.6,30.11,SSE,166,0.0,12.0,31,0.00,,,0.00,WUHU216DAVISVP2,2013-04-04 21:19:00,
2013-04-04 17:25:00,50.1,21.3,30.11,ENE,70,4.0,12.0,32,0.00,,,0.00,WUHU216DAVISVP2,2013-04-04 21:25:00,
2013-04-04 17:30:00,50.0,19.7,30.11,SE,140,3.0,12.0,30,0.00,,,0.00,WUHU216DAVISVP2,2013-04-04 21:30:00,
2013-04-04 17:35:00,49.8,20.3,30.11,SE,124,2.0,11.0,31,0.00,,,0.00,WUHU216DAVISVP2,2013-04-04 21:35:00,
2013-04-04 17:40:00,49.6,20.0,30.11,South,177,3.0,11.0,31,0.00,,,0.00,WUHU216DAVISVP2,2013-04-04 21:40:00,
2013-04-04 17:45:00,49.5,21.3,30.11,SE,139,0.0,11.0,33,0.00,,,0.00,WUHU216DAVISVP2,2013-04-04 21:45:00,
2013-04-04 17:50:00,49.4,19.8,30.11,SE,129,4.0,11.0,31,0.00,,,0.00,WUHU216DAVISVP2,2013-04-04 21:50:00,
2013-04-04 17:55:00,49.2,19.6,30.10,SSW,204,5.0,10.0,31,0.00,,,0.00,WUHU216DAVISVP2,2013-04-04 21:55:00,
2013-04-04 18:00:00,49.2,18.8,30.10,SE,135,3.0,14.0,30,0.00,,,0.00,WUHU216DAVISVP2,2013-04-04 22:00:00,
2013-04-04 18:05:00,49.1,20.3,30.11,SE,137,0.0,14.0,32,0.00,,,0.00,WUHU216DAVISVP2,2013-04-04 22:05:00,
2013-04-04 18:10:00,49.0,20.9,30.11,South,170,0.0,14.0,33,0.00,,,0.00,WUHU216DAVISVP2,2013-04-04 22:10:00,
2013-04-04 18:15:00,49.0,20.2,30.10,ESE,117,0.0,14.0,32,0.00,,,0.00,WUHU216DAVISVP2,2013-04-04 22:15:00,
2013-04-04 18:20:00,49.0,20.9,30.10,SE,139,0.0,7.0,33,0.00,,,0.00,WUHU216DAVISVP2,2013-04-04 22:20:00,
2013-04-04 18:25:00,48.9,20.1,30.10,ESE,114,1.0,6.0,32,0.00,,,0.00,WUHU216DAVISVP2,2013-04-04 22:25:00,
2013-04-04 18:30:00,48.8,20.0,30.10,East,83,1.0,6.0,32,0.00,,,0.00,WUHU216DAVISVP2,2013-04-04 22:30:00,
2013-04-04 18:35:00,48.7,20.6,30.10,SSE,152,1.0,6.0,33,0.00,,,0.00,WUHU216DAVISVP2,2013-04-04 22:35:00,
2013-04-04 18:40:00,48.6,20.5,30.10,ESE,122,0.0,4.0,33,0.00,,,0.00,WUHU216DAVISVP2,2013-04-04 22:40:00,
2013-04-04 18:45:00,48.5,19.0,30.10,SSE,164,1.0,4.0,31,0.00,,,0.00,WUHU216DAVISVP2,2013-04-04 22:45:00,
2013-04-04 18:50:00,48.5,19.0,30.10,South,174,0.0,4.0,31,0.00,,,0.00,WUHU216DAVISVP2,2013-04-04 22:50:00,
2013-04-04 18:55:00,48.3,18.8,30.10,South,172,0.0,5.0,31,0.00,,,0.00,WUHU216DAVISVP2,2013-04-04 22:55:00,
2013-04-04 19:00:00,48.2,19.5,30.09,South,177,1.0,5.0,32,0.00,,,0.00,WUHU216DAVISVP2,2013-04-04 23:00:00,
2013-04-04 19:05:00,48.1,20.1,30.09,SSE,162,0.0,5.0,33,0.00,,,0.00,WUHU216DAVISVP2,2013-04-04 23:05:00,
2013-04-04 19:10:00,47.9,20.6,30.09,SSE,156,0.0,5.0,34,0.00,,,0.00,WUHU216DAVISVP2,2013-04-04 23:10:00,
2013-04-04 19:15:00,47.7,19.0,30.09,SSE,156,0.0,3.0,32,0.00,,,0.00,WUHU216DAVISVP2,2013-04-04 23:15:00,
2013-04-04 19:20:00,47.5,19.6,30.09,South,189,1.0,3.0,33,0.00,,,0.00,WUHU216DAVISVP2,2013-04-04 23:20:00,
2013-04-04 19:25:00,47.3,20.3,30.09,SSW,195,0.0,3.0,34,0.00,,,0.00,WUHU216DAVISVP2,2013-04-04 23:25:00,
2013-04-04 19:30:00,47.2,20.2,30.08,SSW,195,0.0,3.0,34,0.00,,,0.00,WUHU216DAVISVP2,2013-04-04 23:30:00,
2013-04-04 19:35:00,47.1,20.8,30.08,SSW,195,0.0,3.0,35,0.00,,,0.00,WUHU216DAVISVP2,2013-04-04 23:35:00,
2013-04-04 19:40:00,46.8,21.2,30.08,SSW,195,0.0,3.0,36,0.00,,,0.00,WUHU216DAVISVP2,2013-04-04 23:40:00,
2013-04-04 19:45:00,46.6,22.3,30.08,SSW,195,0.0,3.0,38,0.00,,,0.00,WUHU216DAVISVP2,2013-04-04 23:45:00,
2013-04-04 19:50:00,46.3,23.3,30.08,SSW,195,0.0,0.0,40,0.00,,,0.00,WUHU216DAVISVP2,2013-04-04 23:50:00,
2013-04-04 19:55:00,46.0,24.7,30.08,SSW,195,0.0,1.0,43,0.00,,,0.00,WUHU216DAVISVP2,2013-04-04 23:55:00,
2013-04-04 20:00:00,45.7,24.9,30.08,SSW,195,0.0,1.0,44,0.00,,,0.00,WUHU216DAVISVP2,2013-04-05 00:00:00,
2013-04-04 20:05:00,45.3,25.6,30.08,SSW,195,0.0,1.0,46,0.00,,,0.00,WUHU216DAVISVP2,2013-04-05 00:05:00,
2013-04-04 20:10:00,45.0,25.3,30.08,SSE,156,0.0,2.0,46,0.00,,,0.00,WUHU216DAVISVP2,2013-04-05 00:10:00,
2013-04-04 20:15:00,44.6,25.0,30.08,SSE,156,0.0,2.0,46,0.00,,,0.00,WUHU216DAVISVP2,2013-04-05 00:15:00,
2013-04-04 20:20:00,44.3,24.2,30.07,SSE,156,0.0,2.0,45,0.00,,,0.00,WUHU216DAVISVP2,2013-04-05 00:20:00,
2013-04-04 20:25:00,44.1,24.5,30.07,SSE,156,0.0,2.0,46,0.00,,,0.00,WUHU216DAVISVP2,2013-04-05 00:25:00,
2013-04-04 20:30:00,43.9,25.4,30.07,SSE,156,0.0,0.0,48,0.00,,,0.00,WUHU216DAVISVP2,2013-04-05 00:30:00,
2013-04-04 20:35:00,43.6,25.6,30.07,SSE,155,0.0,0.0,49,0.00,,,0.00,WUHU216DAVISVP2,2013-04-05 00:35:00,
2013-04-04 20:40:00,43.3,26.8,30.07,SSE,156,0.0,1.0,52,0.00,,,0.00,WUHU216DAVISVP2,2013-04-05 00:40:00,
2013-04-04 20:45:00,43.1,25.7,30.07,SSE,156,0.0,1.0,50,0.00,,,0.00,WUHU216DAVISVP2,2013-04-05 00:45:00,
2013-04-04 20:50:00,42.9,26.0,30.08,SSE,156,0.0,1.0,51,0.00,,,0.00,WUHU216DAVISVP2,2013-04-05 00:50:00,
2013-04-04 20:55:00,42.7,25.8,30.08,SSE,156,0.0,1.0,51,0.00,,,0.00,WUHU216DAVISVP2,2013-04-05 00:55:00,
2013-04-04 21:00:00,42.5,26.6,30.08,SSE,156,0.0,1.0,53,0.00,,,0.00,WUHU216DAVISVP2,2013-04-05 01:00:00,
2013-04-04 21:05:00,42.2,26.3,30.07,SSE,156,0.0,0.0,53,0.00,,,0.00,WUHU216DAVISVP2,2013-04-05 01:05:00,
2013-04-04 21:10:00,42.0,27.0,30.07,SSE,156,0.0,0.0,55,0.00,,,0.00,WUHU216DAVISVP2,2013-04-05 01:10:00,
2013-04-04 21:15:00,41.8,26.4,30.07,SSE,156,0.0,0.0,54,0.00,,,0.00,WUHU216DAVISVP2,2013-04-05 01:15:00,
2013-04-04 21:20:00,41.6,26.6,30.07,SSE,156,0.0,0.0,55,0.00,,,0.00,WUHU216DAVISVP2,2013-04-05 01:20:00,
2013-04-04 21:25:00,41.4,26.9,30.07,SSE,156,0.0,0.0,56,0.00,,,0.00,WUHU216DAVISVP2,2013-04-05 01:25:00,
2013-04-04 21:30:00,41.3,28.5,30.07,SSE,156,0.0,0.0,60,0.00,,,0.00,WUHU216DAVISVP2,2013-04-05 01:30:00,
2013-04-04 21:35:00,41.2,28.4,30.08,SSE,156,0.0,0.0,60,0.00,,,0.00,WUHU216DAVISVP2,2013-04-05 01:35:00,
2013-04-04 21:40:00,41.0,28.2,30.08,SSE,156,0.0,0.0,60,0.00,,,0.00,WUHU216DAVISVP2,2013-04-05 01:40:00,
2013-04-04 21:45:00,40.8,27.6,30.08,SSE,156,0.0,0.0,59,0.00,,,0.00,WUHU216DAVISVP2,2013-04-05 01:45:00,
2013-04-04 21:50:00,40.7,26.7,30.08,SSE,156,0.0,0.0,57,0.00,,,0.00,WUHU216DAVISVP2,2013-04-05 01:50:00,
2013-04-04 21:55:00,40.5,26.9,30.08,SSE,156,0.0,0.0,58,0.00,,,0.00,WUHU216DAVISVP2,2013-04-05 01:55:00,
2013-04-04 22:01:00,40.4,27.3,30.08,SSE,156,0.0,0.0,59,0.00,,,0.00,WUHU216DAVISVP2,2013-04-05 02:01:00,
2013-04-04 22:06:00,40.3,27.6,30.07,SSE,156,0.0,0.0,60,0.00,,,0.00,WUHU216DAVISVP2,2013-04-05 02:06:00,
2013-04-04 22:11:00,40.1,27.0,30.07,SSE,156,0.0,0.0,59,0.00,,,0.00,WUHU216DAVISVP2,2013-04-05 02:11:00,
2013-04-04 22:16:00,40.1,27.8,30.07,SSE,156,0.0,0.0,61,0.00,,,0.00,WUHU216DAVISVP2,2013-04-05 02:16:00,
2013-04-04 22:21:00,40.1,30.1,30.07,SSE,156,0.0,0.0,67,0.00,,,0.00,WUHU216DAVISVP2,2013-04-05 02:21:00,
2013-04-04 22:26:00,40.0,30.4,30.07,SSE,155,0.0,1.0,68,0.00,,,0.00,WUHU216DAVISVP2,2013-04-05 02:26:00,
2013-04-04 22:31:00,39.9,30.2,30.07,SSE,156,0.0,1.0,68,0.00,,,0.00,WUHU216DAVISVP2,2013-04-05 02:31:00,
2013-04-04 22:36:00,39.8,30.5,30.07,SSE,156,0.0,1.0,69,0.00,,,0.00,WUHU216DAVISVP2,2013-04-05 02:36:00,
2013-04-04 22:41:00,39.6,29.9,30.06,SSE,156,0.0,1.0,68,0.00,,,0.00,WUHU216DAVISVP2,2013-04-05 02:41:00,
2013-04-04 22:46:00,39.5,29.8,30.07,SSE,156,0.0,0.0,68,0.00,,,0.00,WUHU216DAVISVP2,2013-04-05 02:46:00,
2013-04-04 22:50:00,39.2,28.4,30.06,SSE,156,0.0,0.0,65,0.00,,,0.00,WUHU216DAVISVP2,2013-04-05 02:50:00,
2013-04-04 22:56:00,39.0,28.2,30.06,SSE,156,0.0,0.0,65,0.00,,,0.00,WUHU216DAVISVP2,2013-04-05 02:56:00,
2013-04-04 23:01:00,38.9,27.8,30.06,SSE,156,0.0,0.0,64,0.00,,,0.00,WUHU216DAVISVP2,2013-04-05 03:01:00,
2013-04-04 23:06:00,38.8,29.2,30.06,SSE,156,0.0,0.0,68,0.00,,,0.00,WUHU216DAVISVP2,2013-04-05 03:06:00,
2013-04-04 23:11:00,38.8,29.9,30.06,SSE,156,0.0,0.0,70,0.00,,,0.00,WUHU216DAVISVP2,2013-04-05 03:11:00,
2013-04-04 23:16:00,38.7,30.2,30.05,SSE,156,0.0,0.0,71,0.00,,,0.00,WUHU216DAVISVP2,2013-04-05 03:16:00,
2013-04-04 23:21:00,38.6,30.1,30.05,SSE,156,0.0,0.0,71,0.00,,,0.00,WUHU216DAVISVP2,2013-04-05 03:21:00,
2013-04-04 23:26:00,38.4,30.2,30.04,SSE,156,0.0,0.0,72,0.00,,,0.00,WUHU216DAVISVP2,2013-04-05 03:26:00,
2013-04-04 23:30:00,38.3,30.1,30.04,SSE,156,0.0,0.0,72,0.00,,,0.00,WUHU216DAVISVP2,2013-04-05 03:30:00,
2013-04-04 23:35:00,38.2,29.7,30.04,SSE,156,0.0,0.0,71,0.00,,,0.00,WUHU216DAVISVP2,2013-04-05 03:35:00,
2013-04-04 23:41:00,38.1,29.6,30.04,SSE,156,0.0,0.0,71,0.00,,,0.00,WUHU216DAVISVP2,2013-04-05 03:41:00,
2013-04-04 23:45:00,38.0,29.5,30.03,SSE,156,0.0,0.0,71,0.00,,,0.00,WUHU216DAVISVP2,2013-04-05 03:45:00,
2013-04-04 23:51:00,37.9,29.4,30.03,SSE,156,0.0,0.0,71,0.00,,,0.00,WUHU216DAVISVP2,2013-04-05 03:51:00,
2013-04-04 23:56:00,37.8,29.3,30.03,SSE,156,0.0,0.0,71,0.00,,,0.00,WUHU216DAVISVP2,2013-04-05 03:56:00,